Location: Cheching
(60.0667°N, 164.2167°W)
Time: 11:47:47
(UTC+00:00)

UNISAT 6 - Pass Details

Date: 21 January 2021
Orbit: 607 x 687 km, 97.7° (Epoch: 24 February)

Event Time Altitude Azimuth Distance (km) Brightness Sun altitude
Rises 18:27:58 0° 196° (SSW) 2,869 ? -7.6°
Reaches altitude 10° 18:30:23 10° 208° (SSW) 1,975 ? -7.3°
Maximum altitude 18:34:05 28° 268° (W) 1,180 ? -6.9°
Drops below altitude 10° 18:37:52 10° 328° (NNW) 2,019 ? -6.5°
Enters shadow 18:40:17 - 340° (NNW) 2,910 ? -6.3°
